Regional Weather Roundup
Issued by NWS

Home | Current Version | Previous Version | Graphics & Text | Print | Product List | Glossary On
Versions: 1 2 3 4 5 6 7 8 9 10 11 12 13 14 15 16 17 18 19 20 21 22 23 24 25 26 27 28 29 30 31 32 33 34 35 36 37 38 39 40 41 42 43 44 45 46 47 48 49 50
000
ASUS43 KDMX 272008
RWRIA

WEATHER ROUNDUP FOR IOWA
NATIONAL WEATHER SERVICE DES MOINES IA
300 PM CDT SAT AUG 27 2016

NOTE: "FAIR" INDICATES FEW OR NO CLOUDS BELOW 12,000 FEET WITH NO
SIGNIFICANT WEATHER AND/OR OBSTRUCTIONS TO VISIBILITY.

* - THESE STATIONS ARE NOT NWS STATIONS...THUS NOT UNDER NWS
QUALITY CONTROL.  THEY ALSO DO NOT REPORT WEATHER SUCH
AS PRECIPITATION OR FOG.

IAZ001>003-012>014-020>022-031>034-043>046-272100-
   NORTHWEST IOWA

CITY           SKY/WX    TMP DP  RH WIND       PRES   REMARKS
CARROLL *      CLOUDY    75  68  78 SW7       30.02F
CHEROKEE *     CLOUDY    74  66  77 SW6       30.02R
DENISON *      PTSUNNY   77  66  69 SW8       30.00F
LE MARS *      PTSUNNY   75  63  64 SW6G12    30.01F
ORANGE CITY *  CLOUDY    72  63  73 SW7       30.02S
SHELDON *      CLOUDY    72  64  78 SW6       30.01R
SIOUX CITY     PTSUNNY   76  64  66 SW6       30.00F
SPENCER        CLOUDY    72  63  73 SW7       30.02S
STORM LAKE *     N/A     75  66  73 W10       30.03S
$$

IAZ055>058-069>071-079>083-090>094-272100-
   SOUTHWEST IOWA

CITY           SKY/WX    TMP DP  RH WIND       PRES   REMARKS
ATLANTIC *     PTSUNNY   79  68  69 CALM      30.02F HX  81
AUDUBON *      PTSUNNY   75  70  83 SW5       30.04F
CLARINDA *       N/A     82  70  65 MISG      30.04F HX  86
COUNCIL BLFS * MOSUNNY   79  66  65 SW8       30.01F HX  81
CRESTON *      MOSUNNY   79  68  69 SW6G13    30.04F HX  81
HARLAN  *      MOSUNNY   77  68  73 SW7       30.05F
LAMONI         MOSUNNY   80  69  69 SW7       30.02F HX  83
RED OAK *      MOSUNNY   79  70  73 S7        30.02F HX  81
SHENANDOAH *   PTSUNNY   79 -31   1 CALM      30.02F
$$

IAZ047>049-059>061-072>074-084-272100-
   CENTRAL IOWA

CITY           SKY/WX    TMP DP  RH WIND       PRES   REMARKS
AMES           CLOUDY    74  69  85 SW5       30.02F
ANKENY *         N/A    N/A N/A N/A MISG        N/A
BOONE *        CLOUDY    73  68  83 SW8       30.02S
CHARITON *       N/A     81  70  69 MISG      30.02F HX  84
DES MOINES     MOSUNNY   80  69  69 CALM      30.00F HX  83
GRINNELL*      MOSUNNY   77  68  73 W7        30.03F
KNOXVILLE *    MOSUNNY   79  68  69 VRB6      30.00F HX  81
MARSHALLTOWN   CLOUDY    74  69  85 SW6       30.02F
NEWTON *       PTSUNNY   77  72  83 SW5       30.02F
PERRY *        CLOUDY    74  69  85 W3        30.03S
$$

IAZ004>006-015-016-023>025-035-036-272100-
   NORTH CENTRAL IOWA

CITY           SKY/WX    TMP DP  RH WIND       PRES   REMARKS
ALGONA *       CLOUDY    73  66  78 W6        30.02S
ESTHERVILLE    CLOUDY    70  65  84 SW9       30.01S
FORT DODGE *   CLOUDY    75  66  73 W3        30.03S
MASON CITY     CLOUDY    73  65  75 SW6       30.03S
FOREST CITY *    N/A    N/A N/A N/A MISG        N/A
WEBSTER CITY * CLOUDY    75  68  78 SW8       30.00F
IOWA FALLS *   CLOUDY    74  67  77 W7        30.04S
$$

IAZ007>011-017>019-026>030-037>042-050>054-066-272100-
   NORTHEAST IOWA

CITY           SKY/WX    TMP DP  RH WIND       PRES   REMARKS
CEDAR RAPIDS   PTSUNNY   78  71  79 W7        30.01F HX  80
CHARLES CITY * CLOUDY    72  68  88 SW6       30.03S
CLINTON *      CLOUDY    81  72  74 W8        30.01F HX  85
DECORAH *      CLOUDY    70  66  88 S5        30.01F
DUBUQUE        CLOUDY    75  69  81 W8        30.03R
MONTICELLO *   PTSUNNY   77  70  78 W9        30.01S
OELWEIN *      CLOUDY    72  68  88 SW6       30.03S
WATERLOO       CLOUDY    73  66  78 W9        30.01S
$$

IAZ064-065-067-068-078-272100-
   EAST CENTRAL IOWA

CITY           SKY/WX    TMP DP  RH WIND       PRES   REMARKS
DAVENPORT      MOSUNNY   81  70  69 SW10      30.01F HX  84
IOWA CITY      MOSUNNY   80  69  69 W10       30.02F HX  83
MT. PLEASANT * MOSUNNY   87  73  62 SW9       30.01F HX  93
MUSCATINE *    MOSUNNY   84  68  58 SW8       30.00F HX  87
QUAD CITIES    MOSUNNY   84  69  60 W8        30.00F HX  88
$$

IAZ062-063-075>077-085>089-095>099-272100-
   SOUTHEAST IOWA

CITY           SKY/WX    TMP DP  RH WIND       PRES   REMARKS
BURLINGTON     PTSUNNY   83  73  72 SW10      30.01F HX  89
FAIRFIELD *    MOSUNNY   82  70  65 VRB7G13   30.01F HX  86
FORT MADISON *   N/A     84  73  70 SW6       30.02F HX  91
KEOKUK *       MOSUNNY   84  73  70 S7        30.01S HX  91
OSKALOOSA *      N/A     80  70  70 W6        30.02S HX  83
CENTERVILLE *    N/A     82  70  65 CALM      30.04F HX  86
OTTUMWA        MOSUNNY   82  70  66 VRB3      30.01S HX  86
WASHINGTON *   PTSUNNY   82  72  69 VRB3G12   30.02F HX  87
$$

ABBREVIATIONS USED IN REMARKS
   TC - TEMPERATURES IN CELSIUS
  WCI - WIND CHILL INDEX
   HX - HEAT INDEX
  VSB - VISIBILITY
$$





USA.gov is the U.S. government's official web portal to all federal, state and local government web resources and services.